Location: Unspecified
(42.2936°N, 3.1641°W)
Time: 18:40:03
(UTC+01:00)

N. Korean satellite - Visible Passes

Search period start: 07 March 2021 00:00
Search period end: 17 March 2021 00:00
Orbit: 451 x 502 km, 97.2° (Epoch: 06 March)

Date Brightness Start Highest point End Pass type
(mag) Time Alt. Az. Time Alt. Az. Time Alt. Az.
07 Mar 8.2 06:13:09 10° NNE 06:16:29 36° E 06:19:51 10° SSE visible
08 Mar 9.6 05:47:07 10° NE 05:49:35 17° E 05:52:04 10° SE visible
09 Mar 6.5 06:52:40 10° N 06:56:14 63° WNW 06:59:49 10° SSW visible
10 Mar 7.4 06:25:55 10° NNE 06:29:27 55° E 06:33:02 10° S visible
11 Mar 9.0 05:59:33 10° NE 06:02:36 25° E 06:05:39 10° SSE visible
12 Mar 9.9 05:34:06 10° ENE 05:35:37 12° E 05:37:08 10° ESE visible
13 Mar 6.7 06:38:43 10° NNE 06:42:22 84° ESE 06:46:01 10° S visible
14 Mar 8.3 06:12:08 10° NNE 06:15:31 36° E 06:18:55 10° SSE visible
15 Mar 9.6 05:46:03 10° NE 05:48:35 17° E 05:51:05 10° SE visible
16 Mar 6.6 06:51:34 10° N 06:55:11 65° WNW 06:58:49 10° SSW visible
